GFSNW_prec_kuchsnow_081.txt.gz
Snowfall_Accumulation
0.0 0.0 0.0 0.0 0.0 0.0 0.0 0.0 4.6 0.0 0.0 0.0 5.2 5.0 1.2 0.0 0.0 0.0 0.0 0.0 0.0 0.0 0.0 0.0 0.0 0.0 0.0 0.0 0.0 0.0 0.0 1.5 4.7 0.3 0.0 0.0 0.0 0.0 0.0 4.7 2.6 1.0 2.3 0.0
0.0 0.0 0.0 0.0 0.0 0.0 0.0 0.0 0.0 0.0 0.0 5.3 3.1 0.0 0.0 0.0 0.0 0.0 0.0 0.0 0.0 0.0 0.0 0.0 0.0 0.0 0.0 0.0 0.0 0.0 0.0 4.9 7.4 4.3 0.3 0.0 1.9 0.2 0.1 1.0 2.2 4.6 3.9 0.2
0.0 0.0 0.0 0.0 0.0 0.0 0.0 0.0 4.8 0.0 0.0 0.0 0.0 0.0 0.0 0.0 0.0 0.0 0.0 0.0 0.0 0.0 0.0 0.0 0.0 0.0 0.0 0.0 0.0 0.0 0.0 1.5 5.5 6.2 3.4 3.3 4.4 0.7 0.8 3.5 10.0 0.9 0.6 0.0
0.0 0.0 0.0 0.0 0.0 0.0 0.0 0.0 0.2 0.0 3.7 0.9 0.0 0.0 0.0 0.0 0.0 0.0 0.0 0.0 0.0 0.0 0.1 0.0 0.0 0.0 0.0 0.0 0.0 0.0 0.0 8.5 8.9 2.1 1.0 2.3 3.0 1.0 0.5 4.2 0.9 4.1 0.0 0.0
0.0 0.0 0.0 0.0 0.0 0.0 0.0 0.1 0.0 0.0 0.0 0.0 0.0 0.0 0.0 0.0 0.0 0.0 0.0 0.0 0.0 0.0 0.0 0.0 0.0 0.0 0.0 0.0 0.0 0.0 0.0 7.2 4.3 2.1 0.4 1.9 3.2 0.5 0.3 0.1 0.1 0.1 0.0 0.0
0.0 0.0 0.0 0.0 0.0 0.0 0.0 0.0 0.0 0.0 0.0 0.0 0.0 0.0 0.0 0.0 0.0 0.0 0.0 0.0 0.0 0.0 0.0 0.0 0.0 0.0 0.0 0.0 0.0 0.0 0.5 3.8 5.5 5.7 1.1 1.6 2.6 0.4 0.1 0.0 0.0 0.0 0.6 0.0
0.0 0.0 0.0 0.0 0.0 0.0 0.0 0.0 0.0 0.0 0.0 0.0 0.0 0.0 0.0 0.0 0.0 0.0 0.0 0.0 0.0 0.0 0.0 0.0 0.0 0.0 0.0 0.0 0.0 0.0 0.0 1.2 3.0 6.5 3.4 7.1 0.0 0.0 0.0 0.0 0.0 0.0 0.0 0.0
0.0 0.0 0.0 0.0 0.0 0.0 0.0 0.0 0.0 0.0 0.0 0.0 0.0 0.0 0.0 0.0 0.0 0.0 0.0 0.0 0.0 0.0 0.0 0.0 0.0 0.0 0.0 0.0 0.0 0.0 0.0 0.0 1.6 2.3 2.1 0.0 0.0 0.0 0.0 0.0 0.0 0.0 0.0 0.0
0.0 0.0 0.0 0.0 0.0 0.0 0.0 0.0 0.0 0.0 0.0 0.0 0.0 0.0 0.0 0.0 0.0 0.0 0.0 0.0 0.0 0.0 0.0 0.0 0.9 0.2 0.0 0.0 0.0 0.0 0.0 0.0 0.4 0.9 2.8 0.6 0.0 0.0 0.0 0.0 0.0 0.0 0.0 0.0
0.0 0.0 0.0 0.0 0.0 0.0 0.0 0.0 0.0 0.0 0.0 0.0 0.0 0.0 0.0 0.0 0.0 0.0 0.0 0.0 0.0 0.0 0.0 0.8 0.4 0.1 0.0 0.0 0.0 0.2 0.1 0.1 1.1 0.7 1.9 0.0 0.0 0.0 0.0 0.1 0.0 0.0 0.0 0.0
0.0 0.0 0.0 0.0 0.0 0.0 0.0 0.0 0.0 0.0 0.0 0.0 0.0 0.0 0.0 0.0 0.0 0.0 0.0 0.2 0.0 0.0 0.1 0.4 0.0 0.0 0.0 0.0 0.0 0.0 0.0 0.1 0.2 0.4 1.5 0.0 0.0 0.0 0.0 0.0 0.0 0.0 0.0 0.0
0.0 0.0 0.0 0.0 0.0 0.0 0.0 0.0 0.0 0.0 0.0 0.0 0.0 0.0 0.0 0.0 0.0 0.0 0.0 0.0 1.0 0.6 1.0 0.3 0.0 0.0 0.0 0.0 0.0 0.0 0.0 0.0 0.0 0.0 0.0 0.0 0.0 0.0 0.0 0.0 0.0 0.0 0.0 0.0
0.0 0.0 0.0 0.0 0.0 0.0 0.0 0.0 0.0 0.0 0.2 0.0 0.0 0.0 0.0 0.0 0.0 0.0 0.0 0.0 0.0 0.7 0.3 0.4 0.2 0.0 0.0 0.0 0.0 0.0 0.0 0.0 0.0 0.0 0.0 0.0 0.0 0.0 0.0 0.0 0.0 0.0 0.0 0.0
0.0 0.0 0.0 0.0 0.0 0.0 0.0 0.0 0.0 0.0 0.0 1.6 0.0 0.0 0.0 0.0 0.0 0.0 0.0 0.0 0.0 0.0 0.0 0.2 0.7 0.4 0.0 0.0 0.0 0.0 0.0 0.0 0.0 0.0 0.0 0.0 0.0 0.0 0.0 0.0 0.0 0.0 0.0 0.0
0.0 0.0 0.0 0.0 0.0 0.0 0.0 0.0 0.0 0.0 0.0 2.2 0.6 0.0 0.0 0.0 0.0 0.0 0.0 0.0 0.0 0.5 0.5 0.4 0.0 0.0 0.0 0.0 0.0 0.0 0.0 0.0 0.0 0.0 0.0 0.0 0.0 0.0 0.0 0.0 0.0 0.0 0.0 0.0
0.0 0.0 0.0 0.0 0.0 0.0 0.0 0.0 0.0 0.0 0.0 2.3 4.7 0.0 0.0 0.0 0.0 0.0 0.0 0.0 0.2 0.0 1.0 0.0 0.0 0.0 0.0 0.0 0.0 0.0 0.0 0.0 0.0 0.0 0.0 0.0 0.0 0.0 0.0 0.0 0.0 0.0 0.0 0.0
0.0 0.0 0.0 0.0 0.0 0.0 0.0 0.0 0.0 0.0 0.0 2.9 5.7 2.4 0.0 0.0 0.0 0.0 0.0 0.0 0.0 0.0 1.2 0.3 0.0 0.4 0.0 0.9 0.1 0.0 0.0 0.0 0.0 0.0 0.0 0.0 0.0 0.0 0.0 0.0 0.0 0.0 0.0 0.0
0.0 0.0 0.0 0.0 0.0 0.0 0.0 0.0 0.0 0.0 0.0 1.9 7.0 7.0 0.6 0.0 0.0 0.2 0.0 0.0 0.0 0.1 0.1 0.0 0.0 0.0 0.0 0.2 0.0 0.0 0.0 0.0 0.0 0.0 0.0 0.0 0.0 0.0 0.0 0.0 0.0 0.0 0.0 0.0
0.0 0.0 0.0 0.0 0.0 0.0 0.0 0.0 0.0 0.0 0.0 2.6 2.5 3.5 3.1 0.0 0.0 0.0 0.0 0.0 1.4 0.0 0.0 1.5 0.0 0.2 0.3 0.0 0.0 0.0 0.0 0.0 0.0 0.0 0.0 0.0 0.0 0.0 0.0 0.0 0.0 0.0 0.0 0.0
0.0 0.0 0.0 0.0 0.0 0.0 0.0 0.0 0.4 0.9 0.8 1.0 1.4 0.7 1.0 0.0 0.0 0.5 0.1 0.0 0.3 1.7 0.0 0.0 0.5 0.0 0.0 0.0 0.0 0.0 0.0 0.0 0.0 0.0 0.0 0.0 0.0 0.0 0.0 0.0 0.0 0.0 0.0 0.0
0.0 0.0 0.6 0.0 0.0 0.0 0.0 1.5 1.3 0.8 1.1 0.4 0.4 0.8 1.2 0.0 1.2 1.2 0.3 2.0 0.7 1.5 0.1 0.5 2.0 0.6 0.0 0.0 0.0 0.0 0.0 0.0 0.0 0.0 0.0 0.0 0.0 0.0 0.0 0.0 0.0 0.0 0.0 0.0
0.0 0.0 1.4 1.6 0.9 2.6 7.0 3.4 0.6 0.5 0.2 0.5 0.9 0.1 0.0 0.1 0.0 0.3 0.4 1.9 1.9 1.3 0.0 1.3 0.3 0.0 0.0 0.0 0.0 0.0 0.0 0.0 0.0 0.0 0.0 0.0 0.0 0.0 0.1 0.6 0.7 0.1 0.3 0.2
0.0 2.8 8.1 6.3 5.7 10.8 5.1 2.7 0.9 1.0 0.6 0.7 0.4 0.4 0.0 0.0 0.0 0.3 0.8 1.9 0.8 0.0 0.7 0.1 0.0 0.0 0.0 0.0 0.0 0.0 0.0 0.0 0.0 0.6 0.7 0.5 0.1 0.0 0.2 0.5 0.8 0.5 0.2 0.1
7.0 10.4 13.7 7.2 5.5 2.1 0.9 0.6 0.7 0.2 0.2 0.1 0.3 0.4 0.3 0.0 0.8 0.3 1.4 0.0 0.4 1.2 0.5 0.0 0.0 0.0 0.1 0.0 0.1 0.1 0.0 0.0 0.0 0.0 0.1 0.3 0.6 0.7 0.5 0.7 0.4 0.2 0.6 0.4
9.5 7.3 7.3 2.4 1.5 0.7 0.7 0.6 0.3 0.0 0.1 0.1 0.1 0.2 0.2 0.6 1.3 0.9 1.0 1.4 0.1 0.0 0.0 0.0 0.1 0.2 0.2 0.1 0.2 0.0 0.0 0.0 0.0 0.0 0.2 1.2 0.1 0.0 0.0 0.0 0.0 0.0 0.1 0.2
7.1 5.3 3.9 1.0 0.1 0.1 0.3 0.4 0.3 0.0 0.0 0.0 0.5 1.3 1.3 0.8 1.2 1.8 0.3 1.3 0.0 0.3 0.5 0.7 0.8 0.7 0.3 0.0 0.0 0.0 0.0 0.0 0.2 0.9 2.2 1.1 0.0 0.0 0.0 0.0 0.1 0.0 0.0 0.0
6.3 2.8 0.7 0.7 0.1 0.0 0.2 0.0 0.0 0.0 0.3 1.7 3.0 4.3 0.9 0.2 2.3 0.1 0.0 0.3 0.3 0.6 0.8 0.5 0.3 0.0 0.0 0.0 0.0 0.0 0.0 0.2 0.0 0.1 1.2 1.2 0.8 0.3 0.1 0.0 0.0 0.0 0.0 0.0

GFSNW_prec_kuchsnow_087.txt.gz
Snowfall_Accumulation
0.0 0.0 0.0 0.0 0.0 0.0 0.0 0.0 5.4 0.0 0.0 0.0 5.2 5.0 1.2 0.0 0.0 0.0 0.0 0.0 0.0 0.0 0.0 0.0 0.0 0.0 0.0 0.0 0.0 0.0 0.0 1.5 4.7 0.3 0.0 0.0 0.0 0.0 0.0 4.7 2.6 1.0 2.3 0.0
0.0 0.0 0.0 0.0 0.0 0.0 0.0 0.0 0.0 0.0 0.0 5.3 3.1 0.0 0.0 0.0 0.0 0.0 0.0 0.0 0.0 0.0 0.0 0.0 0.0 0.0 0.0 0.0 0.0 0.0 0.0 4.9 7.4 4.3 0.3 0.0 1.9 0.2 0.1 1.0 2.2 4.6 3.9 0.2
0.0 0.0 0.0 0.0 0.0 0.0 0.0 0.0 5.6 0.0 0.0 0.0 0.0 0.0 0.0 0.0 0.0 0.0 0.0 0.0 0.0 0.0 0.0 0.0 0.0 0.0 0.0 0.0 0.0 0.0 0.0 1.5 5.5 6.2 3.4 3.3 4.4 0.7 0.8 3.5 10.0 0.9 0.6 0.0
0.0 0.0 0.0 0.0 0.0 0.0 0.0 0.0 0.3 0.0 3.7 0.9 0.0 0.0 0.0 0.0 0.0 0.0 0.0 0.0 0.0 0.0 0.1 0.0 0.0 0.0 0.0 0.0 0.0 0.0 0.0 8.5 8.9 2.1 1.0 2.3 3.0 1.0 0.5 4.2 0.9 4.1 0.0 0.0
0.0 0.0 0.0 0.0 0.0 0.0 0.0 0.1 0.0 0.0 0.0 0.0 0.0 0.0 0.0 0.0 0.0 0.0 0.0 0.0 0.0 0.0 0.0 0.0 0.0 0.0 0.0 0.0 0.0 0.0 0.0 7.2 4.3 2.1 0.4 1.9 3.2 0.5 0.3 0.1 0.1 0.1 0.0 0.0
0.0 0.0 0.0 0.0 0.0 0.0 0.0 0.0 0.0 0.0 0.0 0.0 0.0 0.0 0.0 0.0 0.0 0.0 0.0 0.0 0.0 0.0 0.0 0.0 0.0 0.0 0.0 0.0 0.0 0.0 0.5 3.8 5.5 5.7 1.1 1.6 2.6 0.4 0.1 0.0 0.0 0.0 0.6 0.0
0.0 0.0 0.0 0.0 0.0 0.0 0.0 0.0 0.0 0.0 0.0 0.0 0.0 0.0 0.0 0.0 0.0 0.0 0.0 0.0 0.0 0.0 0.0 0.0 0.0 0.0 0.0 0.0 0.0 0.0 0.0 1.2 3.0 6.5 3.4 7.1 0.0 0.0 0.0 0.0 0.0 0.0 0.0 0.0
0.0 0.0 0.0 0.0 0.0 0.0 0.0 0.0 0.0 0.0 0.0 0.0 0.0 0.0 0.0 0.0 0.0 0.0 0.0 0.0 0.0 0.0 0.0 0.0 0.0 0.0 0.0 0.0 0.0 0.0 0.0 0.0 1.6 2.3 2.1 0.0 0.0 0.0 0.0 0.0 0.0 0.0 0.0 0.0
0.0 0.0 0.0 0.0 0.0 0.0 0.0 0.0 0.0 0.0 0.0 0.0 0.0 0.0 0.0 0.0 0.0 0.0 0.0 0.0 0.0 0.0 0.0 0.0 0.9 0.2 0.0 0.0 0.0 0.0 0.0 0.0 0.4 0.9 2.8 0.6 0.0 0.0 0.0 0.0 0.0 0.0 0.0 0.0
0.0 0.0 0.0 0.0 0.0 0.0 0.0 0.0 0.0 0.0 0.0 0.0 0.0 0.0 0.0 0.0 0.0 0.0 0.0 0.0 0.0 0.0 0.0 0.8 0.4 0.1 0.0 0.0 0.0 0.2 0.1 0.1 1.1 0.7 1.9 0.0 0.0 0.0 0.0 0.1 0.0 0.0 0.0 0.0
0.0 0.0 0.0 0.0 0.0 0.0 0.0 0.0 0.0 0.0 0.0 0.0 0.0 0.0 0.0 0.0 0.0 0.0 0.0 0.2 0.0 0.0 0.1 0.4 0.0 0.0 0.0 0.0 0.0 0.0 0.0 0.1 0.2 0.5 1.5 0.0 0.0 0.0 0.0 0.0 0.0 0.0 0.0 0.0
0.0 0.0 0.0 0.0 0.0 0.0 0.0 0.0 0.0 0.0 0.0 0.0 0.0 0.0 0.0 0.0 0.0 0.0 0.0 0.0 1.0 0.6 1.0 0.3 0.0 0.0 0.0 0.0 0.0 0.0 0.0 0.0 0.0 0.0 0.0 0.0 0.0 0.0 0.0 0.0 0.0 0.0 0.0 0.0
0.0 0.0 0.0 0.0 0.0 0.0 0.0 0.0 0.0 0.0 0.2 0.0 0.0 0.0 0.0 0.0 0.0 0.0 0.0 0.0 0.0 0.7 0.3 0.4 0.2 0.0 0.0 0.0 0.0 0.0 0.0 0.0 0.0 0.0 0.0 0.0 0.0 0.0 0.0 0.0 0.0 0.0 0.0 0.0
0.0 0.0 0.0 0.0 0.0 0.0 0.0 0.0 0.0 0.0 0.0 1.6 0.0 0.0 0.0 0.0 0.0 0.0 0.0 0.0 0.0 0.0 0.0 0.2 0.7 0.4 0.0 0.0 0.0 0.0 0.0 0.0 0.0 0.0 0.0 0.0 0.0 0.0 0.0 0.0 0.0 0.0 0.0 0.0
0.0 0.0 0.0 0.0 0.0 0.0 0.0 0.0 0.0 0.0 0.0 2.2 0.6 0.0 0.0 0.0 0.0 0.0 0.0 0.0 0.0 0.5 0.5 0.4 0.0 0.0 0.0 0.0 0.0 0.0 0.0 0.0 0.0 0.0 0.0 0.0 0.0 0.0 0.0 0.0 0.0 0.0 0.0 0.0
0.0 0.0 0.0 0.0 0.0 0.0 0.0 0.0 0.0 0.0 0.0 2.3 4.7 0.0 0.0 0.0 0.0 0.0 0.0 0.0 0.2 0.0 1.0 0.0 0.0 0.0 0.0 0.0 0.0 0.0 0.0 0.0 0.0 0.0 0.0 0.0 0.0 0.0 0.0 0.0 0.0 0.0 0.0 0.0
0.0 0.0 0.0 0.0 0.0 0.0 0.0 0.0 0.0 0.0 0.0 2.9 5.7 2.4 0.0 0.0 0.0 0.0 0.0 0.0 0.0 0.0 1.2 0.3 0.0 0.4 0.0 0.9 0.1 0.0 0.0 0.0 0.0 0.0 0.0 0.0 0.0 0.0 0.0 0.0 0.0 0.0 0.0 0.0
0.0 0.0 0.0 0.0 0.0 0.0 0.0 0.0 0.0 0.0 0.0 1.9 7.0 7.0 0.6 0.0 0.0 0.2 0.0 0.0 0.0 0.1 0.1 0.0 0.0 0.0 0.0 0.2 0.0 0.0 0.0 0.0 0.0 0.0 0.0 0.0 0.0 0.0 0.0 0.0 0.0 0.0 0.0 0.0
0.0 0.0 0.0 0.0 0.0 0.0 0.0 0.0 0.0 0.0 0.0 2.6 2.5 3.5 3.1 0.0 0.0 0.0 0.0 0.0 1.4 0.0 0.0 1.5 0.0 0.2 0.3 0.0 0.0 0.0 0.0 0.0 0.0 0.0 0.0 0.0 0.0 0.0 0.0 0.0 0.0 0.0 0.0 0.0
0.0 0.0 0.0 0.0 0.0 0.0 0.0 0.0 0.4 0.9 0.8 1.0 1.4 0.7 1.0 0.0 0.0 0.5 0.1 0.0 0.3 1.7 0.0 0.0 0.5 0.0 0.0 0.0 0.0 0.0 0.0 0.0 0.0 0.0 0.0 0.0 0.0 0.0 0.0 0.0 0.0 0.0 0.0 0.0
0.0 0.0 0.7 0.0 0.0 0.0 0.0 1.5 1.3 0.8 1.1 0.4 0.4 0.8 1.2 0.0 1.2 1.2 0.3 2.0 0.7 1.5 0.1 0.5 2.0 0.6 0.0 0.0 0.0 0.0 0.0 0.0 0.0 0.0 0.0 0.0 0.0 0.0 0.0 0.0 0.0 0.0 0.0 0.0
0.0 0.0 1.4 1.6 0.9 2.6 7.0 3.4 0.6 0.5 0.2 0.5 0.9 0.1 0.0 0.1 0.0 0.3 0.4 1.9 1.9 1.3 0.0 1.3 0.3 0.0 0.0 0.0 0.0 0.0 0.0 0.0 0.0 0.0 0.0 0.0 0.0 0.0 0.1 0.6 0.7 0.1 0.3 0.2
0.0 2.8 8.1 6.3 5.7 10.8 5.1 2.7 0.9 1.0 0.6 0.7 0.4 0.4 0.0 0.0 0.0 0.3 0.8 1.9 0.8 0.0 0.7 0.1 0.0 0.0 0.0 0.0 0.0 0.0 0.0 0.0 0.0 0.6 0.7 0.5 0.1 0.0 0.2 0.5 0.8 0.5 0.2 0.1
7.0 10.4 13.7 7.2 5.5 2.1 0.9 0.6 0.7 0.2 0.2 0.1 0.3 0.4 0.3 0.0 0.8 0.3 1.4 0.0 0.4 1.2 0.5 0.0 0.0 0.0 0.1 0.0 0.1 0.1 0.0 0.0 0.0 0.0 0.1 0.3 0.6 0.7 0.5 0.7 0.4 0.2 0.6 0.4
9.5 7.3 7.3 2.4 1.5 0.7 0.7 0.6 0.3 0.0 0.1 0.1 0.1 0.2 0.2 0.6 1.3 0.9 1.0 1.4 0.1 0.0 0.0 0.0 0.1 0.2 0.2 0.1 0.2 0.0 0.0 0.0 0.0 0.0 0.2 1.2 0.1 0.0 0.0 0.0 0.0 0.0 0.1 0.2
7.1 5.3 3.9 1.0 0.1 0.1 0.3 0.4 0.3 0.0 0.0 0.0 0.5 1.3 1.3 0.8 1.2 1.8 0.3 1.3 0.0 0.3 0.5 0.7 0.8 0.7 0.3 0.0 0.0 0.0 0.0 0.0 0.2 0.9 2.2 1.1 0.0 0.0 0.0 0.0 0.1 0.0 0.0 0.0
6.3 2.8 0.7 0.7 0.1 0.0 0.2 0.0 0.0 0.0 0.3 1.7 3.0 4.3 0.9 0.2 2.3 0.1 0.0 0.3 0.3 0.6 0.8 0.5 0.3 0.0 0.0 0.0 0.0 0.0 0.0 0.2 0.0 0.1 1.2 1.2 0.8 0.3 0.1 0.0 0.0 0.0 0.0 0.0

GFSNW_prec_kuchsnow_093.txt.gz
Snowfall_Accumulation
0.0 0.0 0.0 0.0 0.0 0.0 0.0 0.0 6.5 0.0 0.0 0.0 5.4 5.1 1.3 0.0 0.0 0.0 0.0 0.0 0.0 0.0 0.0 0.0 0.0 0.0 0.0 0.0 0.0 0.0 0.0 1.5 4.7 0.3 0.0 0.0 0.0 0.0 0.0 4.7 2.6 1.0 2.3 0.0
0.0 0.0 0.0 0.0 0.0 0.0 0.0 0.0 0.0 0.0 0.0 6.1 3.2 0.0 0.1 0.0 0.0 0.0 0.0 0.0 0.0 0.0 0.0 0.0 0.0 0.0 0.0 0.0 0.0 0.0 0.0 4.9 7.4 4.3 0.3 0.0 1.9 0.2 0.1 1.0 2.2 4.6 3.9 0.2
0.0 0.0 0.0 0.0 0.0 0.0 0.0 0.0 6.7 0.0 0.0 0.0 0.0 0.3 0.2 0.0 0.0 0.0 0.0 0.0 0.0 0.0 0.0 0.0 0.0 0.0 0.0 0.0 0.0 0.0 0.0 1.5 5.5 6.2 3.4 3.3 4.4 0.7 0.8 3.5 10.0 0.9 0.6 0.0
0.0 0.0 0.0 0.0 0.0 0.0 0.0 0.0 0.4 0.0 4.5 1.1 0.0 0.1 0.0 0.0 0.0 0.0 0.0 0.0 0.0 0.0 0.1 0.0 0.0 0.0 0.0 0.0 0.0 0.0 0.0 8.5 8.9 2.1 1.0 2.3 3.0 1.0 0.5 4.2 0.9 4.1 0.0 0.0
0.0 0.0 0.0 0.0 0.0 0.0 0.0 0.1 0.0 0.0 0.0 0.0 0.2 0.1 0.0 0.0 0.0 0.0 0.0 0.0 0.0 0.0 0.0 0.0 0.0 0.0 0.0 0.0 0.0 0.0 0.0 7.2 4.3 2.1 0.4 1.9 3.2 0.5 0.3 0.1 0.1 0.1 0.0 0.0
0.0 0.0 0.0 0.0 0.0 0.0 0.0 0.0 0.0 0.0 0.0 0.1 0.0 0.0 0.0 0.0 0.0 0.0 0.0 0.0 0.0 0.0 0.0 0.0 0.0 0.0 0.0 0.0 0.0 0.0 0.5 3.8 5.5 5.7 1.1 1.6 2.6 0.4 0.1 0.0 0.0 0.0 0.6 0.0
0.0 0.0 0.0 0.0 0.0 0.0 0.0 0.0 0.0 0.0 0.0 0.0 0.0 0.0 0.0 0.0 0.0 0.0 0.0 0.0 0.0 0.0 0.0 0.0 0.0 0.0 0.0 0.0 0.0 0.0 0.0 1.2 3.0 6.5 3.4 7.1 0.0 0.0 0.0 0.0 0.0 0.0 0.0 0.0
0.0 0.0 0.0 0.0 0.0 0.0 0.0 0.0 0.0 0.0 0.0 0.0 0.0 0.0 0.0 0.0 0.0 0.0 0.0 0.0 0.0 0.0 0.0 0.0 0.0 0.0 0.0 0.0 0.0 0.0 0.0 0.0 1.6 2.3 2.1 0.0 0.0 0.0 0.0 0.0 0.0 0.0 0.0 0.0
0.0 0.0 0.0 0.0 0.0 0.0 0.0 0.0 0.0 0.0 0.0 0.0 0.0 0.0 0.0 0.0 0.0 0.0 0.0 0.0 0.0 0.0 0.0 0.0 0.9 0.2 0.0 0.0 0.0 0.0 0.0 0.0 0.4 0.9 2.8 0.6 0.0 0.0 0.0 0.0 0.0 0.0 0.0 0.0
0.0 0.0 0.0 0.0 0.0 0.0 0.0 0.0 0.0 0.0 0.0 0.0 0.0 0.0 0.0 0.0 0.0 0.0 0.0 0.0 0.0 0.0 0.0 0.8 0.4 0.1 0.0 0.0 0.0 0.2 0.1 0.1 1.1 0.7 1.9 0.0 0.0 0.0 0.0 0.1 0.0 0.0 0.0 0.0
0.0 0.0 0.0 0.0 0.0 0.0 0.0 0.0 0.0 0.0 0.0 0.0 0.0 0.0 0.0 0.0 0.0 0.0 0.0 0.2 0.0 0.0 0.1 0.4 0.0 0.0 0.0 0.0 0.0 0.0 0.0 0.1 0.2 0.5 1.5 0.0 0.0 0.0 0.0 0.0 0.0 0.0 0.0 0.0
0.0 0.0 0.0 0.0 0.0 0.0 0.0 0.0 0.0 0.0 0.0 0.0 0.0 0.0 0.0 0.0 0.0 0.0 0.0 0.0 1.0 0.6 1.0 0.3 0.0 0.0 0.0 0.0 0.0 0.0 0.0 0.0 0.0 0.0 0.0 0.0 0.0 0.0 0.0 0.0 0.0 0.0 0.0 0.0
0.0 0.0 0.0 0.0 0.0 0.0 0.0 0.0 0.0 0.0 0.2 0.0 0.0 0.0 0.0 0.0 0.0 0.0 0.0 0.0 0.0 0.7 0.3 0.4 0.2 0.0 0.0 0.0 0.0 0.0 0.0 0.0 0.0 0.0 0.0 0.0 0.0 0.0 0.0 0.0 0.0 0.0 0.0 0.0
0.0 0.0 0.0 0.0 0.0 0.0 0.0 0.0 0.0 0.0 0.0 1.6 0.0 0.0 0.0 0.0 0.0 0.0 0.0 0.0 0.0 0.0 0.0 0.2 0.7 0.4 0.0 0.0 0.0 0.0 0.0 0.0 0.0 0.0 0.0 0.0 0.0 0.0 0.0 0.0 0.0 0.0 0.0 0.0
0.0 0.0 0.0 0.0 0.0 0.0 0.0 0.0 0.0 0.0 0.0 2.2 0.6 0.0 0.0 0.0 0.0 0.0 0.0 0.0 0.0 0.5 0.5 0.4 0.0 0.0 0.0 0.0 0.0 0.0 0.0 0.0 0.0 0.0 0.0 0.0 0.0 0.0 0.0 0.0 0.0 0.0 0.0 0.0
0.0 0.0 0.0 0.0 0.0 0.0 0.0 0.0 0.0 0.0 0.0 2.3 4.7 0.0 0.0 0.0 0.0 0.0 0.0 0.0 0.2 0.0 1.0 0.0 0.0 0.0 0.0 0.0 0.0 0.0 0.0 0.0 0.0 0.0 0.0 0.0 0.0 0.0 0.0 0.0 0.0 0.0 0.0 0.0
0.0 0.0 0.0 0.0 0.0 0.0 0.0 0.0 0.0 0.0 0.0 2.9 5.7 2.4 0.0 0.0 0.0 0.0 0.0 0.0 0.0 0.0 1.2 0.3 0.0 0.4 0.0 0.9 0.1 0.0 0.0 0.0 0.0 0.0 0.0 0.0 0.0 0.0 0.0 0.0 0.0 0.0 0.0 0.0
0.0 0.0 0.0 0.0 0.0 0.0 0.0 0.0 0.0 0.0 0.0 1.9 7.0 7.0 0.6 0.0 0.0 0.2 0.0 0.0 0.0 0.1 0.1 0.0 0.0 0.0 0.0 0.2 0.0 0.0 0.0 0.0 0.0 0.0 0.0 0.0 0.0 0.0 0.0 0.0 0.0 0.0 0.0 0.0
0.0 0.0 0.0 0.0 0.0 0.0 0.0 0.0 0.0 0.0 0.0 2.6 2.5 3.5 3.1 0.0 0.0 0.0 0.0 0.0 1.4 0.0 0.0 1.5 0.0 0.2 0.3 0.0 0.0 0.0 0.0 0.0 0.0 0.0 0.0 0.0 0.0 0.0 0.0 0.0 0.0 0.0 0.0 0.0
0.0 0.0 0.0 0.0 0.0 0.0 0.0 0.0 0.4 0.9 0.8 1.0 1.4 0.7 1.0 0.0 0.0 0.5 0.1 0.0 0.3 1.7 0.0 0.0 0.5 0.0 0.0 0.0 0.0 0.0 0.0 0.0 0.0 0.0 0.0 0.0 0.0 0.0 0.0 0.0 0.0 0.0 0.0 0.0
0.0 0.0 0.7 0.0 0.0 0.0 0.0 1.5 1.3 0.8 1.1 0.4 0.4 0.8 1.2 0.0 1.2 1.2 0.3 2.0 0.7 1.5 0.1 0.5 2.0 0.6 0.0 0.0 0.0 0.0 0.0 0.0 0.0 0.0 0.0 0.0 0.0 0.0 0.0 0.0 0.0 0.0 0.0 0.0
0.0 0.0 1.4 1.6 0.9 2.6 7.0 3.4 0.6 0.5 0.2 0.5 0.9 0.1 0.0 0.1 0.0 0.3 0.4 1.9 1.9 1.3 0.0 1.3 0.3 0.0 0.0 0.0 0.0 0.0 0.0 0.0 0.0 0.0 0.0 0.0 0.0 0.0 0.1 0.6 0.7 0.1 0.3 0.2
0.0 2.8 8.1 6.3 5.7 10.8 5.1 2.7 0.9 1.0 0.6 0.7 0.4 0.4 0.0 0.0 0.0 0.3 0.8 1.9 0.8 0.0 0.7 0.1 0.0 0.0 0.0 0.0 0.0 0.0 0.0 0.0 0.0 0.6 0.7 0.5 0.1 0.0 0.2 0.5 0.8 0.5 0.2 0.1
7.0 11.1 13.9 7.2 5.5 2.1 0.9 0.6 0.7 0.2 0.2 0.1 0.3 0.4 0.3 0.0 0.8 0.3 1.4 0.0 0.4 1.2 0.5 0.0 0.0 0.0 0.1 0.0 0.1 0.1 0.0 0.0 0.0 0.0 0.1 0.3 0.6 0.7 0.5 0.7 0.4 0.2 0.6 0.4
10.5 7.8 7.3 2.4 1.5 0.7 0.7 0.6 0.3 0.0 0.1 0.1 0.1 0.2 0.2 0.6 1.3 0.9 1.0 1.4 0.1 0.0 0.0 0.0 0.1 0.2 0.2 0.1 0.2 0.0 0.0 0.0 0.0 0.0 0.2 1.2 0.1 0.0 0.0 0.0 0.0 0.0 0.1 0.2
8.1 5.6 3.9 1.0 0.1 0.1 0.3 0.4 0.3 0.0 0.0 0.0 0.5 1.3 1.3 0.8 1.2 1.8 0.3 1.3 0.0 0.3 0.5 0.7 0.8 0.7 0.3 0.0 0.0 0.0 0.0 0.0 0.2 0.9 2.2 1.1 0.0 0.0 0.0 0.0 0.1 0.0 0.0 0.0
8.2 3.0 0.7 0.7 0.1 0.0 0.2 0.0 0.0 0.0 0.3 1.7 3.0 4.3 0.9 0.2 2.3 0.1 0.0 0.3 0.3 0.6 0.8 0.5 0.3 0.0 0.0 0.0 0.0 0.0 0.0 0.2 0.0 0.1 1.2 1.2 0.8 0.3 0.1 0.0 0.0 0.0 0.0 0.0

GFSNW_prec_kuchsnow_096.txt.gz
Snowfall_Accumulation
0.0 0.0 0.0 0.0 0.0 0.0 0.0 0.0 6.6 0.0 0.0 0.9 5.7 5.2 1.5 0.0 0.0 0.0 0.0 0.0 0.0 0.0 0.0 0.0 0.0 0.0 0.0 0.0 0.0 0.0 0.0 1.5 4.7 0.3 0.0 0.0 0.0 0.0 0.0 4.7 2.6 1.0 2.3 0.0
0.0 0.0 0.0 0.0 0.0 0.0 0.0 0.0 0.0 0.0 0.0 6.6 3.3 0.2 0.4 0.0 0.0 0.0 0.0 0.0 0.0 0.0 0.0 0.0 0.0 0.0 0.0 0.0 0.0 0.0 0.0 4.9 7.4 4.3 0.3 0.0 1.9 0.2 0.1 1.0 2.2 4.6 3.9 0.2
0.0 0.0 0.0 0.0 0.0 0.0 0.0 0.0 6.7 0.0 0.0 0.0 0.0 0.5 0.5 0.1 0.0 0.0 0.0 0.0 0.0 0.0 0.0 0.0 0.0 0.0 0.0 0.0 0.0 0.0 0.0 1.5 5.5 6.2 3.4 3.3 4.4 0.7 0.8 3.5 10.0 0.9 0.6 0.0
0.0 0.0 0.0 0.0 0.0 0.0 0.0 0.0 0.4 0.0 4.7 1.1 0.0 0.1 0.1 0.0 0.0 0.0 0.0 0.0 0.0 0.0 0.1 0.0 0.0 0.0 0.0 0.0 0.0 0.0 0.0 8.5 8.9 2.1 1.0 2.3 3.0 1.0 0.5 4.2 0.9 4.1 0.0 0.0
0.0 0.0 0.0 0.0 0.0 0.0 0.0 0.1 0.0 0.0 0.0 0.0 0.4 0.2 0.0 0.0 0.0 0.0 0.0 0.0 0.0 0.0 0.0 0.0 0.0 0.0 0.0 0.0 0.0 0.0 0.0 7.2 4.3 2.1 0.4 1.9 3.2 0.5 0.3 0.1 0.1 0.1 0.0 0.0
0.0 0.0 0.0 0.0 0.0 0.0 0.0 0.0 0.0 0.0 0.0 0.3 0.1 0.0 0.0 0.0 0.0 0.0 0.0 0.0 0.0 0.0 0.0 0.0 0.0 0.0 0.0 0.0 0.0 0.0 0.5 3.8 5.5 5.7 1.1 1.6 2.6 0.4 0.1 0.0 0.0 0.0 0.6 0.0
0.0 0.0 0.0 0.0 0.0 0.0 0.0 0.0 0.0 0.0 0.0 0.0 0.0 0.0 0.0 0.0 0.0 0.0 0.0 0.0 0.0 0.0 0.0 0.0 0.0 0.0 0.0 0.0 0.0 0.0 0.0 1.2 3.0 6.5 3.4 7.1 0.0 0.0 0.0 0.0 0.0 0.0 0.0 0.0
0.0 0.0 0.0 0.0 0.0 0.0 0.0 0.0 0.0 0.0 0.0 0.0 0.0 0.0 0.0 0.0 0.0 0.0 0.0 0.0 0.0 0.0 0.0 0.0 0.0 0.0 0.0 0.0 0.0 0.0 0.0 0.0 1.6 2.3 2.1 0.0 0.0 0.0 0.0 0.0 0.0 0.0 0.0 0.0
0.0 0.0 0.0 0.0 0.0 0.0 0.0 0.0 0.0 0.0 0.0 0.0 0.0 0.0 0.0 0.0 0.0 0.0 0.0 0.0 0.0 0.0 0.0 0.0 0.9 0.2 0.0 0.0 0.0 0.0 0.0 0.0 0.4 0.9 2.8 0.6 0.0 0.0 0.0 0.0 0.0 0.0 0.0 0.0
0.0 0.0 0.0 0.0 0.0 0.0 0.0 0.0 0.0 0.0 0.0 0.0 0.0 0.0 0.0 0.0 0.0 0.0 0.0 0.0 0.0 0.0 0.0 0.8 0.4 0.1 0.0 0.0 0.0 0.2 0.1 0.1 1.1 0.7 1.9 0.0 0.0 0.0 0.0 0.1 0.0 0.0 0.0 0.0
0.0 0.0 0.0 0.0 0.0 0.0 0.0 0.0 0.0 0.0 0.0 0.0 0.0 0.0 0.0 0.0 0.0 0.0 0.0 0.2 0.0 0.0 0.1 0.4 0.0 0.0 0.0 0.0 0.0 0.0 0.0 0.1 0.2 0.5 1.5 0.0 0.0 0.0 0.0 0.0 0.0 0.0 0.0 0.0
0.0 0.0 0.0 0.0 0.0 0.0 0.0 0.0 0.0 0.0 0.0 0.0 0.0 0.0 0.0 0.0 0.0 0.0 0.0 0.0 1.0 0.6 1.0 0.3 0.0 0.0 0.0 0.0 0.0 0.0 0.0 0.0 0.0 0.0 0.0 0.0 0.0 0.0 0.0 0.0 0.0 0.0 0.0 0.0
0.0 0.0 0.0 0.0 0.0 0.0 0.0 0.0 0.0 0.0 0.2 0.0 0.0 0.0 0.0 0.0 0.0 0.0 0.0 0.0 0.0 0.7 0.3 0.4 0.2 0.0 0.0 0.0 0.0 0.0 0.0 0.0 0.0 0.0 0.0 0.0 0.0 0.0 0.0 0.0 0.0 0.0 0.0 0.0
0.0 0.0 0.0 0.0 0.0 0.0 0.0 0.0 0.0 0.0 0.0 1.6 0.0 0.0 0.0 0.0 0.0 0.0 0.0 0.0 0.0 0.0 0.0 0.2 0.7 0.4 0.0 0.0 0.0 0.0 0.0 0.0 0.0 0.0 0.0 0.0 0.0 0.0 0.0 0.0 0.0 0.0 0.0 0.0
0.0 0.0 0.0 0.0 0.0 0.0 0.0 0.0 0.0 0.0 0.0 2.2 0.6 0.0 0.0 0.0 0.0 0.0 0.0 0.0 0.0 0.5 0.5 0.4 0.0 0.0 0.0 0.0 0.0 0.0 0.0 0.0 0.0 0.0 0.0 0.0 0.0 0.0 0.0 0.0 0.0 0.0 0.0 0.0
0.0 0.0 0.0 0.0 0.0 0.0 0.0 0.0 0.0 0.0 0.0 2.3 4.7 0.0 0.0 0.0 0.0 0.0 0.0 0.0 0.2 0.0 1.0 0.0 0.0 0.0 0.0 0.0 0.0 0.0 0.0 0.0 0.0 0.0 0.0 0.0 0.0 0.0 0.0 0.0 0.0 0.0 0.0 0.0
0.0 0.0 0.0 0.0 0.0 0.0 0.0 0.0 0.0 0.0 0.0 2.9 5.7 2.4 0.0 0.0 0.0 0.0 0.0 0.0 0.0 0.0 1.2 0.3 0.0 0.4 0.0 0.9 0.1 0.0 0.0 0.0 0.0 0.0 0.0 0.0 0.0 0.0 0.0 0.0 0.0 0.0 0.0 0.0
0.0 0.0 0.0 0.0 0.0 0.0 0.0 0.0 0.0 0.0 0.0 1.9 7.0 7.0 0.6 0.0 0.0 0.2 0.0 0.0 0.0 0.1 0.1 0.0 0.0 0.0 0.0 0.2 0.0 0.0 0.0 0.0 0.0 0.0 0.0 0.0 0.0 0.0 0.0 0.0 0.0 0.0 0.0 0.0
0.0 0.0 0.0 0.0 0.0 0.0 0.0 0.0 0.0 0.0 0.0 2.6 2.5 3.5 3.1 0.0 0.0 0.0 0.0 0.0 1.4 0.0 0.0 1.5 0.0 0.2 0.3 0.0 0.0 0.0 0.0 0.0 0.0 0.0 0.0 0.0 0.0 0.0 0.0 0.0 0.0 0.0 0.0 0.0
0.0 0.0 0.0 0.0 0.0 0.0 0.0 0.0 0.4 0.9 0.8 1.0 1.4 0.7 1.0 0.0 0.0 0.5 0.1 0.0 0.3 1.7 0.0 0.0 0.5 0.0 0.0 0.0 0.0 0.0 0.0 0.0 0.0 0.0 0.0 0.0 0.0 0.0 0.0 0.0 0.0 0.0 0.0 0.0
0.0 0.0 0.7 0.0 0.0 0.0 0.0 1.5 1.3 0.8 1.1 0.4 0.4 0.8 1.2 0.0 1.2 1.2 0.3 2.0 0.7 1.5 0.1 0.5 2.0 0.6 0.0 0.0 0.0 0.0 0.0 0.0 0.0 0.0 0.0 0.0 0.0 0.0 0.0 0.0 0.0 0.0 0.0 0.0
0.0 0.0 1.4 1.6 0.9 2.6 7.0 3.4 0.6 0.5 0.2 0.5 0.9 0.1 0.0 0.1 0.0 0.3 0.4 1.9 1.9 1.3 0.0 1.3 0.3 0.0 0.0 0.0 0.0 0.0 0.0 0.0 0.0 0.0 0.0 0.0 0.0 0.0 0.1 0.6 0.7 0.1 0.3 0.2
0.0 2.8 8.1 6.3 5.7 10.8 5.1 2.7 0.9 1.0 0.6 0.7 0.4 0.4 0.0 0.0 0.0 0.3 0.8 1.9 0.8 0.0 0.7 0.1 0.0 0.0 0.0 0.0 0.0 0.0 0.0 0.0 0.0 0.6 0.7 0.5 0.1 0.0 0.2 0.5 0.8 0.5 0.2 0.1
7.0 11.1 13.9 7.2 5.5 2.1 0.9 0.6 0.7 0.2 0.2 0.1 0.3 0.4 0.3 0.0 0.8 0.3 1.4 0.0 0.4 1.2 0.5 0.0 0.0 0.0 0.1 0.0 0.1 0.1 0.0 0.0 0.0 0.0 0.1 0.3 0.6 0.7 0.5 0.7 0.4 0.2 0.6 0.4
10.9 8.0 7.4 2.4 1.5 0.7 0.7 0.6 0.3 0.0 0.1 0.1 0.1 0.2 0.2 0.6 1.3 0.9 1.0 1.4 0.1 0.0 0.0 0.0 0.1 0.2 0.2 0.1 0.2 0.0 0.0 0.0 0.0 0.0 0.2 1.2 0.1 0.0 0.0 0.0 0.0 0.0 0.1 0.2
8.9 6.0 3.9 1.0 0.1 0.1 0.3 0.4 0.3 0.0 0.0 0.0 0.5 1.3 1.3 0.8 1.2 1.8 0.3 1.3 0.0 0.3 0.5 0.7 0.8 0.7 0.3 0.0 0.0 0.0 0.0 0.0 0.2 0.9 2.2 1.1 0.0 0.0 0.0 0.0 0.1 0.0 0.0 0.0
9.3 3.0 0.7 0.7 0.1 0.0 0.2 0.0 0.0 0.0 0.3 1.7 3.0 4.3 0.9 0.2 2.3 0.1 0.0 0.3 0.3 0.6 0.8 0.5 0.3 0.0 0.0 0.0 0.0 0.0 0.0 0.2 0.0 0.1 1.2 1.2 0.8 0.3 0.1 0.0 0.0 0.0 0.0 0.0

GFSNW_prec_kuchsnow_099.txt.gz
Snowfall_Accumulation
0.0 0.0 0.0 0.0 0.0 0.0 0.0 0.0 6.7 0.0 0.0 0.9 5.8 5.3 1.5 0.0 0.0 0.0 0.0 0.0 0.0 0.0 0.0 0.0 0.0 0.0 0.0 0.0 0.0 0.0 0.0 1.5 4.9 0.3 0.0 0.0 0.0 0.0 0.0 4.7 2.6 1.0 2.3 0.0
0.0 0.0 0.0 0.0 0.0 0.0 0.0 0.0 0.0 0.0 0.0 6.8 3.4 0.2 0.5 0.0 0.0 0.0 0.0 0.0 0.0 0.0 0.0 0.0 0.0 0.0 0.0 0.0 0.0 0.0 0.0 4.9 7.4 4.3 0.3 0.0 1.9 0.2 0.1 1.0 2.2 4.6 3.9 0.2
0.0 0.0 0.0 0.0 0.0 0.0 0.0 0.0 7.1 0.0 0.0 0.0 0.0 0.6 0.6 0.1 0.0 0.0 0.0 0.0 0.0 0.0 0.0 0.0 0.0 0.0 0.0 0.0 0.0 0.0 0.0 1.5 5.5 6.2 3.4 3.3 4.4 0.7 0.8 3.5 10.0 0.9 0.6 0.0
0.0 0.0 0.0 0.0 0.0 0.0 0.0 0.0 0.4 0.0 4.7 1.1 0.0 0.1 0.1 0.0 0.0 0.0 0.0 0.0 0.0 0.0 0.1 0.0 0.0 0.0 0.0 0.0 0.0 0.0 0.0 8.5 8.9 2.1 1.0 2.3 3.0 1.0 0.5 4.2 0.9 4.1 0.0 0.0
0.0 0.0 0.0 0.0 0.0 0.0 0.0 0.1 0.0 0.0 0.0 0.0 0.4 0.2 0.0 0.0 0.0 0.0 0.0 0.0 0.0 0.0 0.0 0.0 0.0 0.0 0.0 0.0 0.0 0.0 0.0 7.2 4.3 2.1 0.4 1.9 3.2 0.5 0.3 0.1 0.1 0.1 0.0 0.0
0.0 0.0 0.0 0.0 0.0 0.0 0.0 0.0 0.0 0.0 0.0 0.3 0.1 0.0 0.0 0.0 0.0 0.0 0.0 0.0 0.0 0.0 0.0 0.0 0.0 0.0 0.0 0.0 0.0 0.0 0.5 3.8 5.5 5.7 1.1 1.6 2.6 0.4 0.1 0.0 0.0 0.0 0.6 0.0
0.0 0.0 0.0 0.0 0.0 0.0 0.0 0.0 0.0 0.0 0.0 0.0 0.0 0.0 0.0 0.0 0.0 0.0 0.0 0.0 0.0 0.0 0.0 0.0 0.0 0.0 0.0 0.0 0.0 0.0 0.0 1.2 3.0 6.5 3.4 7.1 0.0 0.0 0.0 0.0 0.0 0.0 0.0 0.0
0.0 0.0 0.0 0.0 0.0 0.0 0.0 0.0 0.0 0.0 0.0 0.0 0.0 0.0 0.0 0.0 0.0 0.0 0.0 0.0 0.0 0.0 0.0 0.0 0.0 0.0 0.0 0.0 0.0 0.0 0.0 0.0 1.6 2.3 2.1 0.0 0.0 0.0 0.0 0.0 0.0 0.0 0.0 0.0
0.0 0.0 0.0 0.0 0.0 0.0 0.0 0.0 0.0 0.0 0.0 0.0 0.0 0.0 0.0 0.0 0.0 0.0 0.0 0.0 0.0 0.0 0.0 0.0 0.9 0.2 0.0 0.0 0.0 0.0 0.0 0.0 0.4 0.9 2.8 0.6 0.0 0.0 0.0 0.0 0.0 0.0 0.0 0.0
0.0 0.0 0.0 0.0 0.0 0.0 0.0 0.0 0.0 0.0 0.0 0.0 0.0 0.0 0.0 0.0 0.0 0.0 0.0 0.0 0.0 0.0 0.0 0.8 0.4 0.1 0.0 0.0 0.0 0.2 0.1 0.1 1.1 0.7 1.9 0.0 0.0 0.0 0.0 0.1 0.0 0.0 0.0 0.0
0.0 0.0 0.0 0.0 0.0 0.0 0.0 0.0 0.0 0.0 0.0 0.0 0.0 0.0 0.0 0.0 0.0 0.0 0.0 0.2 0.0 0.0 0.1 0.4 0.0 0.0 0.0 0.0 0.0 0.0 0.0 0.1 0.2 0.5 1.5 0.0 0.0 0.0 0.0 0.0 0.0 0.0 0.0 0.0
0.0 0.0 0.0 0.0 0.0 0.0 0.0 0.0 0.0 0.0 0.0 0.0 0.0 0.0 0.0 0.0 0.0 0.0 0.0 0.0 1.0 0.6 1.0 0.3 0.0 0.0 0.0 0.0 0.0 0.0 0.0 0.0 0.0 0.0 0.0 0.0 0.0 0.0 0.0 0.0 0.0 0.0 0.0 0.0
0.0 0.0 0.0 0.0 0.0 0.0 0.0 0.0 0.0 0.0 0.2 0.0 0.0 0.0 0.0 0.0 0.0 0.0 0.0 0.0 0.0 0.7 0.3 0.4 0.2 0.0 0.0 0.0 0.0 0.0 0.0 0.0 0.0 0.0 0.0 0.0 0.0 0.0 0.0 0.0 0.0 0.0 0.0 0.0
0.0 0.0 0.0 0.0 0.0 0.0 0.0 0.0 0.0 0.0 0.0 1.6 0.0 0.0 0.0 0.0 0.0 0.0 0.0 0.0 0.0 0.0 0.0 0.2 0.7 0.4 0.0 0.0 0.0 0.0 0.0 0.0 0.0 0.0 0.0 0.0 0.0 0.0 0.0 0.0 0.0 0.0 0.0 0.0
0.0 0.0 0.0 0.0 0.0 0.0 0.0 0.0 0.0 0.0 0.0 2.2 0.6 0.0 0.0 0.0 0.0 0.0 0.0 0.0 0.0 0.5 0.5 0.4 0.0 0.0 0.0 0.0 0.0 0.0 0.0 0.0 0.0 0.0 0.0 0.0 0.0 0.0 0.0 0.0 0.0 0.0 0.0 0.0
0.0 0.0 0.0 0.0 0.0 0.0 0.0 0.0 0.0 0.0 0.0 2.3 4.7 0.0 0.0 0.0 0.0 0.0 0.0 0.0 0.2 0.0 1.0 0.0 0.0 0.0 0.0 0.0 0.0 0.0 0.0 0.0 0.0 0.0 0.0 0.0 0.0 0.0 0.0 0.0 0.0 0.0 0.0 0.0
0.0 0.0 0.0 0.0 0.0 0.0 0.0 0.0 0.0 0.0 0.0 2.9 5.7 2.4 0.0 0.0 0.0 0.0 0.0 0.0 0.0 0.0 1.2 0.3 0.0 0.4 0.0 0.9 0.1 0.0 0.0 0.0 0.0 0.0 0.0 0.0 0.0 0.0 0.0 0.0 0.0 0.0 0.0 0.0
0.0 0.0 0.0 0.0 0.0 0.0 0.0 0.0 0.0 0.0 0.0 1.9 7.0 7.0 0.6 0.0 0.0 0.2 0.0 0.0 0.0 0.1 0.1 0.0 0.0 0.0 0.0 0.2 0.0 0.0 0.0 0.0 0.0 0.0 0.0 0.0 0.0 0.0 0.0 0.0 0.0 0.0 0.0 0.0
0.0 0.0 0.0 0.0 0.0 0.0 0.0 0.0 0.0 0.0 0.0 2.6 2.5 3.5 3.1 0.0 0.0 0.0 0.0 0.0 1.4 0.0 0.0 1.5 0.0 0.2 0.3 0.0 0.0 0.0 0.0 0.0 0.0 0.0 0.0 0.0 0.0 0.0 0.0 0.0 0.0 0.0 0.0 0.0
0.0 0.0 0.0 0.0 0.0 0.0 0.0 0.0 0.4 0.9 0.8 1.0 1.4 0.7 1.0 0.0 0.0 0.5 0.1 0.0 0.3 1.7 0.0 0.0 0.5 0.0 0.0 0.0 0.0 0.0 0.0 0.0 0.0 0.0 0.0 0.0 0.0 0.0 0.0 0.0 0.0 0.0 0.0 0.0
0.0 0.0 0.7 0.0 0.0 0.0 0.0 1.5 1.3 0.8 1.1 0.4 0.4 0.8 1.2 0.0 1.2 1.2 0.3 2.0 0.7 1.5 0.1 0.5 2.0 0.6 0.0 0.0 0.0 0.0 0.0 0.0 0.0 0.0 0.0 0.0 0.0 0.0 0.0 0.0 0.0 0.0 0.0 0.0
0.0 0.0 1.4 1.6 0.9 2.6 7.0 3.4 0.6 0.5 0.2 0.5 0.9 0.1 0.0 0.1 0.0 0.3 0.4 1.9 1.9 1.3 0.0 1.3 0.3 0.0 0.0 0.0 0.0 0.0 0.0 0.0 0.0 0.0 0.0 0.0 0.0 0.0 0.1 0.6 0.7 0.1 0.3 0.2
0.0 2.8 8.1 6.3 5.7 10.8 5.1 2.7 0.9 1.0 0.6 0.7 0.4 0.4 0.0 0.0 0.0 0.3 0.8 1.9 0.8 0.0 0.7 0.1 0.0 0.0 0.0 0.0 0.0 0.0 0.0 0.0 0.0 0.6 0.7 0.5 0.1 0.0 0.2 0.5 0.8 0.5 0.2 0.1
7.0 11.1 14.0 7.2 5.5 2.1 0.9 0.6 0.7 0.2 0.2 0.1 0.3 0.4 0.3 0.0 0.8 0.3 1.4 0.0 0.4 1.2 0.5 0.0 0.0 0.0 0.1 0.0 0.1 0.1 0.0 0.0 0.0 0.0 0.1 0.3 0.6 0.7 0.5 0.7 0.4 0.2 0.6 0.4
10.9 8.0 7.4 2.4 1.5 0.7 0.7 0.6 0.3 0.0 0.1 0.1 0.1 0.2 0.2 0.6 1.3 0.9 1.0 1.4 0.1 0.0 0.0 0.0 0.1 0.2 0.2 0.1 0.2 0.0 0.0 0.0 0.0 0.0 0.2 1.2 0.1 0.0 0.0 0.0 0.0 0.0 0.1 0.2
8.9 6.2 3.9 1.0 0.1 0.1 0.3 0.4 0.3 0.0 0.0 0.0 0.5 1.3 1.3 0.8 1.2 1.8 0.3 1.3 0.0 0.3 0.5 0.7 0.8 0.7 0.3 0.0 0.0 0.0 0.0 0.0 0.2 0.9 2.2 1.1 0.0 0.0 0.0 0.0 0.1 0.0 0.0 0.0
9.7 3.2 0.7 0.7 0.1 0.0 0.2 0.0 0.0 0.0 0.3 1.7 3.0 4.3 0.9 0.2 2.3 0.1 0.0 0.3 0.3 0.6 0.8 0.5 0.3 0.0 0.0 0.0 0.0 0.0 0.0 0.2 0.0 0.1 1.2 1.2 0.8 0.3 0.1 0.0 0.0 0.0 0.0 0.0